KRLD

Details ICAO KRLD
Name RICHLAND
Region United States
Timezone America/Los_Angeles (UTC-7.0)
Plans Departing 5
Arriving 2
Stats Elevation 394 ft / 120 m (AMSL)
Location 46.305638° -119.304185°
Runways 2
Magnetic Variation 14.715° E
Sunrise 2018-05-27 12:13:36 UTC / 2018-05-27 05:13:36 Local
Sunset 2018-05-28 03:38:06 UTC / 2018-05-27 20:38:06 Local
Advertisement - Login to hide

Runways

ID Width Length Bearing (true) Bearing (mag) Surface Threshold Offset Overrun Length
01 75 ft / 23 m 4,009 ft / 1,222 m 25.52° 10.80° Asphalt 0 ft / 0 m 0 ft / 0 m
08 100 ft / 30 m 3,985 ft / 1,215 m 95.45° 80.73° Asphalt 0 ft / 0 m 0 ft / 0 m
19 75 ft / 23 m 4,009 ft / 1,222 m 205.53° 190.81° Asphalt 0 ft / 0 m 0 ft / 0 m
26 100 ft / 30 m 3,985 ft / 1,215 m 275.47° 260.75° Asphalt 0 ft / 0 m 0 ft / 0 m

Approach Navaids

Runway Type Ident Frequency Range Bearing (true) Bearing (mag) Slope Elevation
19 Localiser IRLD 110.50 MHz 18 nm / 33 km 205.52° 190.80° - 394 ft / 120 m (AMSL)

Map

Weather


0- 5 10 15 20 25 30 35+ Temperature / ° C

Clouds and Precipitation
Forecast for 2018-05-27 18:00 UTC. Updated an hour ago

Ground ~20,000 ft ~40,000 ft Winds

METAR

KRLD 271835Z AUTO 00000KT 10SM CLR 24/06 A3012 RMK AO2 T02380060

TAF

Not found

Frequencies

Recorded 132.62 MHz AWOS 3
Clearance 122.40 MHz CLNC DEL
Unicom 122.70 MHz CTAF/UNICOM
Approach 128.75 MHz CHINOOK APP/DEP
Warning: Do not use this data for real-world aviation or navigation. No guarantee of current accuracy is given.